Location: *
(41.7492°S, 135.4150°W)
Time: 04:15:44
(UTC+00:00)

TIGRISAT - Pass Details

Date: 30 June 2022
Orbit: 603 x 686 km, 97.7° (Epoch: 08 August)

Event Time Altitude Azimuth Distance (km) Brightness Sun altitude
Rises 15:31:20 0° 169° (S) 3,095 ? -10.6°
Reaches altitude 10° 15:33:37 10° 169° (S) 2,171 ? -10.2°
Maximum altitude 15:38:23 84° 255° (WSW) 703 ? -9.4°
Drops below altitude 10° 15:43:04 10° 344° (NNW) 2,120 ? -8.6°
Sets 15:45:16 0° 344° (NNW) 3,017 ? -8.2°
